[[{"header":{"parameterUnit":"m.s-1","parameterCategory":1,"la1":30.2991,"la2":30.254,"lo1":-89.0895,"lo2":-89.0444,"dy":0.0017,"dx":0.0017,"nx":28,"ny":28,"refTime":"2025-03-10T09:00:00:Z","depth":0,"parameterNumber":2,"parameterNumberName":"U-component_of_WINDS"},"data":[0,0,0,0,0,0,0,0,0,0,0,0,0,0,0,0,0,0,0,0,0,0,0,0,0,0,0,0,0,0,0,0,0,0,0,0,0,0,0,0,0,0,0,0,0,0,0,0,0,0,0,0,0,0,0,0,0,0,1.8744,1.8744,0,1.8792,1.8792,1.8793,1.8805,1.8805,1.8805,1.8805,1.8855,1.8857,1.8858,0,0,0,0,0,0,0,0,0,0,0,0,0,1.8666,1.8667,1.8743,1.8744,1.8745,1.8792,1.8792,1.8793,1.8805,1.8805,1.8805,1.8804,1.8855,1.8857,1.8859,0,0,0,0,0,0,0,0,0,0,0,0,0,1.8705,1.8667,1.8743,1.8757,1.8758,1.8791,1.8792,1.8793,1.8806,1.8805,1.8805,1.8804,1.8854,1.8856,1.8859,1.8883,0,0,1.8866,1.8867,0,0,0,0,0,0,0,0,1.8703,1.8708,1.8754,1.8756,1.8758,1.8792,1.8783,1.8823,1.8806,1.8788,1.8804,1.8804,1.8835,1.8839,1.8849,1.8885,1.8887,1.8867,1.8868,1.8869,1.887,0,0,0,0,0,0,0,1.87,1.8706,1.8763,1.8755,1.8757,1.8761,1.8766,1.8791,1.8813,1.8789,1.879,1.8796,1.8836,1.8846,1.885,1.8888,1.8866,1.8869,1.887,1.8871,1.895,1.895,0,0,0,0,0,0,1.8695,1.8704,1.8761,1.8764,1.8729,1.8763,1.8769,1.8781,1.8813,1.8817,1.8796,1.8796,1.8842,1.8847,1.8852,1.8884,1.8869,1.8871,1.8873,1.8949,1.895,1.895,0,0,0,0,0,0,1.8693,1.87,1.8759,1.8734,1.8742,1.8765,1.8779,1.8783,1.8793,1.8818,1.8822,1.8803,1.8842,1.8848,1.8876,1.8885,1.8872,1.8875,1.8948,1.8949,1.895,1.8946,0,0,0,0,0,0,1.8691,1.8699,1.8707,1.8734,1.8743,1.8781,1.878,1.8784,1.8797,1.8798,1.8825,1.883,1.8842,1.8872,1.8878,1.8889,1.8877,1.8947,1.8949,1.895,1.8945,1.8947,1.8948,0,0,0,0,0,1.8688,1.8704,1.8708,1.8715,1.8754,1.8781,1.8787,1.8801,1.8798,1.8807,1.8824,1.8829,1.8883,1.8874,1.8881,1.8893,1.8947,1.8948,1.895,1.8945,1.8947,1.8948,0,0,0,0,0,0,1.8678,1.8708,1.8712,1.8737,1.8757,1.8783,1.8795,1.8802,1.8822,1.8822,1.8839,1.8845,1.8872,1.8885,1.8875,1.8919,1.8915,1.8918,1.8909,1.8911,1.8912,1.8909,1.8879,0,0,0,0,0,1.8678,1.8697,1.8723,1.8743,1.8752,1.8772,1.8785,1.8794,1.8815,1.8823,1.8841,1.8862,1.8885,1.8899,1.892,1.8948,1.8955,1.8959,1.8961,1.8962,1.8964,1.8982,1.8985,1.8955,1.8955,1.8955,0,0,1.868,1.8699,1.8709,1.8741,1.8757,1.8778,1.8779,1.88,1.8816,1.8827,1.8853,1.8868,1.8892,1.8921,1.8934,1.8932,1.8974,1.8963,1.8964,1.8966,1.8984,1.8986,1.8989,1.8956,1.8956,1.8956,0,0,1.8693,1.8709,1.8728,1.8744,1.8769,1.8783,1.8787,1.8814,1.8824,1.8851,1.8861,1.888,1.8917,1.8935,1.8949,1.8972,1.8978,1.8979,1.8985,1.9003,1.9005,1.9007,1.9017,1.902,1.8981,1.8981,1.8981,0,1.8692,1.8722,1.8737,1.8758,1.8773,1.8784,1.8805,1.882,1.8851,1.8861,1.8859,1.8908,1.8925,1.8959,1.8964,1.8975,1.8982,1.8975,1.9003,1.9006,1.9008,1.9017,1.9021,1.8981,1.8981,1.8981,1.8981,0,1.872,1.8741,1.8754,1.8784,1.88,1.882,1.884,1.8854,1.8863,1.8878,1.8907,1.8928,1.8955,1.8964,1.8972,1.9,1.8998,1.9,1.8996,1.901,1.902,1.9023,1.8981,1.8981,1.8981,1.8981,0,0,1.8726,1.8766,1.877,1.8785,1.8814,1.8831,1.8854,1.888,1.8894,1.8915,1.8935,1.8968,1.897,1.8986,1.8997,1.9012,1.9031,1.9012,1.9013,1.9016,1.9065,1.9064,1.9068,1.9036,1.9036,1.9037,1.9063,0,1.8744,1.8783,1.8799,1.8831,1.8852,1.8865,1.8885,1.8906,1.892,1.8941,1.8958,1.8981,1.8982,1.8992,1.9007,1.9025,1.9041,1.9024,1.9056,1.9057,1.9049,1.9072,1.9071,1.9094,1.9067,1.9067,1.9068,0,1.8769,1.8791,1.8826,1.8855,1.8865,1.8882,1.8909,1.8928,1.8953,1.8963,1.8982,1.8993,1.9019,1.9014,1.9051,1.9038,1.9053,1.9064,1.9065,1.9069,1.9063,1.9077,1.9102,1.9106,1.9073,1.9073,1.9072,0,1.8771,1.881,1.8837,1.8849,1.8883,1.8895,1.891,1.8935,1.8951,1.8975,1.8986,1.9013,1.9027,1.9049,1.9067,1.9061,1.9103,1.9099,1.9113,1.9113,1.9121,1.912,1.9149,1.9129,1.9129,1.9129,1.9129,0,1.8789,1.881,1.8838,1.8855,1.888,1.8898,1.8923,1.8939,1.8961,1.8982,1.8995,1.9014,1.9037,1.906,1.9075,1.9104,1.911,1.912,1.9124,1.9119,1.9118,1.9129,1.9128,1.913,1.913,1.913,1.9129,0,1.8796,1.8815,1.8845,1.8876,1.8884,1.8901,1.8928,1.8946,1.8962,1.8988,1.8996,1.9021,1.9049,1.907,1.9106,1.9116,1.9148,1.9151,1.9139,1.9141,1.9154,1.9153,1.9191,1.9198,1.9173,1.9173,1.9174,0,1.8806,1.8823,1.8856,1.8871,1.8886,1.8909,1.8926,1.8946,1.8963,1.8994,1.9008,1.9037,1.9061,1.9106,1.9129,1.9157,1.9162,1.9173,1.9166,1.9162,1.9163,1.9162,1.9165,1.9174,1.9174,1.9175,1.9175,0,1.8822,1.8832,1.8855,1.8883,1.8902,1.8925,1.8948,1.896,1.8984,1.9003,1.9032,1.9051,1.9088,1.9118,1.9149,1.9166,1.9175,1.9177,1.9182,1.9177,1.917,1.9176,1.9143,1.9176,1.9176,1.9176,1.9176,1.9176,1.8832,1.8848,1.8875,1.8901,1.892,1.8942,1.8961,1.898,1.9004,1.9036,1.9047,1.9077,1.9105,1.9148,1.9165,1.9191,1.919,1.9197,1.9199,1.9201,1.9201,1.9166,1.9196,1.9196,1.9196,1.9196,1.9196,0,1.885,1.8868,1.8892,1.8924,1.8946,1.8953,1.8979,1.8997,1.9023,1.9048,1.9072,1.9107,1.9136,1.9162,1.9193,1.9208,1.9213,1.9216,1.9215,1.9219,1.9199,1.9192,1.9211,1.9211,1.9211,1.9211,1.9211,1.9211,1.8862,1.889,1.8904,1.8943,1.8961,1.8991,1.9006,1.9027,1.9047,1.9085,1.911,1.9126,1.9152,1.9186,1.9214,1.9221,1.9232,1.9233,1.9242,1.9222,1.922,1.9219,1.9212,1.9235,1.9235,1.926,1.926,1.926]},{"header":{"parameterUnit":"m.s-1","parameterCategory":1,"la1":30.2991,"la2":30.254,"lo1":-89.0895,"lo2":-89.0444,"dy":0.0017,"dx":0.0017,"nx":28,"ny":28,"refTime":"2025-03-10T09:00:00:Z","depth":0,"parameterNumber":3,"parameterNumberName":"V-component_of_WINDS"},"data":[0,0,0,0,0,0,0,0,0,0,0,0,0,0,0,0,0,0,0,0,0,0,0,0,0,0,0,0,0,0,0,0,0,0,0,0,0,0,0,0,0,0,0,0,0,0,0,0,0,0,0,0,0,0,0,0,0,0,-3.7051,-3.7052,0,-3.706,-3.706,-3.706,-3.7104,-3.7105,-3.7106,-3.7107,-3.7113,-3.7112,-3.7111,0,0,0,0,0,0,0,0,0,0,0,0,0,-3.7076,-3.7075,-3.7051,-3.7052,-3.7052,-3.706,-3.706,-3.706,-3.7104,-3.7105,-3.7107,-3.7108,-3.7113,-3.7112,-3.7111,0,0,0,0,0,0,0,0,0,0,0,0,0,-3.7073,-3.7075,-3.7051,-3.7075,-3.7077,-3.706,-3.706,-3.706,-3.7104,-3.7105,-3.7107,-3.7108,-3.7113,-3.7112,-3.7111,-3.7071,0,0,-3.7107,-3.7106,0,0,0,0,0,0,0,0,-3.7073,-3.7072,-3.7071,-3.7073,-3.7076,-3.7083,-3.707,-3.7064,-3.7103,-3.7093,-3.7107,-3.7109,-3.7101,-3.7101,-3.7099,-3.7071,-3.7071,-3.7107,-3.7106,-3.7106,-3.7105,0,0,0,0,0,0,0,-3.7073,-3.7071,-3.7055,-3.7071,-3.7074,-3.7085,-3.7087,-3.7069,-3.7088,-3.7094,-3.7098,-3.7098,-3.7103,-3.71,-3.7099,-3.7072,-3.7107,-3.7106,-3.7105,-3.7104,-3.7018,-3.7017,0,0,0,0,0,0,-3.707,-3.7071,-3.7054,-3.7055,-3.7078,-3.7084,-3.7085,-3.7079,-3.7088,-3.7092,-3.7097,-3.71,-3.7101,-3.7101,-3.71,-3.7057,-3.7106,-3.7104,-3.7104,-3.702,-3.7018,-3.7016,0,0,0,0,0,0,-3.707,-3.7068,-3.7054,-3.7064,-3.7063,-3.7082,-3.7074,-3.7078,-3.7075,-3.709,-3.7094,-3.7091,-3.7103,-3.7102,-3.7079,-3.7058,-3.7104,-3.7103,-3.7021,-3.7019,-3.7017,-3.697,0,0,0,0,0,0,-3.7071,-3.7068,-3.7052,-3.7063,-3.7063,-3.7033,-3.7073,-3.7077,-3.7073,-3.7078,-3.7085,-3.7088,-3.7104,-3.7081,-3.7078,-3.7057,-3.7102,-3.7023,-3.702,-3.7018,-3.6973,-3.6966,-3.696,0,0,0,0,0,-3.7071,-3.7036,-3.7051,-3.7048,-3.7043,-3.7031,-3.7031,-3.705,-3.7071,-3.7057,-3.7067,-3.7088,-3.7061,-3.7078,-3.7075,-3.7054,-3.7025,-3.7021,-3.7018,-3.6976,-3.6968,-3.696,0,0,0,0,0,0,-3.7019,-3.7038,-3.7054,-3.7022,-3.7025,-3.7039,-3.702,-3.704,-3.7036,-3.704,-3.7064,-3.7065,-3.7041,-3.7045,-3.7064,-3.7019,-3.7047,-3.7043,-3.7016,-3.7008,-3.7002,-3.7001,-3.7101,0,0,0,0,0,-3.7004,-3.6993,-3.701,-3.698,-3.6981,-3.7,-3.6996,-3.7012,-3.7015,-3.7016,-3.7025,-3.7027,-3.7021,-3.7015,-3.7008,-3.6975,-3.6979,-3.6959,-3.6953,-3.6947,-3.6943,-3.6931,-3.6923,-3.7005,-3.7005,-3.7005,0,0,-3.6972,-3.6981,-3.6972,-3.697,-3.6974,-3.6963,-3.7001,-3.6986,-3.6979,-3.7013,-3.6994,-3.7001,-3.7006,-3.698,-3.6968,-3.6983,-3.6922,-3.6943,-3.6938,-3.6937,-3.6926,-3.6919,-3.6912,-3.7002,-3.7003,-3.7003,0,0,-3.6908,-3.6913,-3.6891,-3.6896,-3.6903,-3.6918,-3.6912,-3.6925,-3.6932,-3.6913,-3.6941,-3.6933,-3.6919,-3.6923,-3.6923,-3.6869,-3.6889,-3.6866,-3.6831,-3.6819,-3.6812,-3.6807,-3.679,-3.6784,-3.6862,-3.6862,-3.6862,0,-3.6867,-3.6852,-3.6876,-3.6862,-3.6862,-3.6897,-3.6876,-3.6879,-3.6883,-3.6883,-3.6899,-3.6887,-3.6892,-3.6869,-3.6857,-3.6855,-3.6852,-3.6864,-3.6811,-3.6806,-3.6801,-3.6786,-3.6779,-3.6859,-3.686,-3.686,-3.686,0,-3.6803,-3.6792,-3.6773,-3.678,-3.6778,-3.676,-3.6784,-3.6779,-3.6796,-3.681,-3.6793,-3.6802,-3.6801,-3.6797,-3.6812,-3.6778,-3.6787,-3.6807,-3.6835,-3.679,-3.6776,-3.677,-3.6855,-3.6856,-3.6857,-3.6858,0,0,-3.6701,-3.6727,-3.672,-3.6726,-3.6739,-3.6732,-3.6718,-3.6719,-3.6716,-3.6719,-3.6709,-3.67,-3.6721,-3.6721,-3.6738,-3.6727,-3.6689,-3.675,-3.675,-3.674,-3.6656,-3.6641,-3.6633,-3.6703,-3.6702,-3.6701,-3.6656,0,-3.6642,-3.6619,-3.6645,-3.6617,-3.661,-3.6646,-3.6634,-3.6643,-3.6656,-3.6653,-3.6668,-3.6662,-3.6688,-3.669,-3.668,-3.6695,-3.6672,-3.6699,-3.6695,-3.6695,-3.6693,-3.6626,-3.6609,-3.6565,-3.6651,-3.665,-3.6649,0,-3.6569,-3.6573,-3.6545,-3.6567,-3.6565,-3.6554,-3.656,-3.6556,-3.6567,-3.6579,-3.6582,-3.6605,-3.6595,-3.6624,-3.6612,-3.663,-3.6631,-3.6638,-3.6637,-3.6637,-3.6669,-3.6625,-3.6552,-3.6546,-3.664,-3.6641,-3.6641,0,-3.6501,-3.6499,-3.6484,-3.6488,-3.6511,-3.6504,-3.6513,-3.6527,-3.6528,-3.6533,-3.6535,-3.6538,-3.654,-3.6544,-3.6568,-3.6586,-3.6554,-3.6584,-3.6564,-3.6564,-3.6555,-3.6555,-3.6481,-3.6554,-3.6554,-3.6554,-3.6554,0,-3.6432,-3.6414,-3.6455,-3.6445,-3.6428,-3.6459,-3.6441,-3.6454,-3.6467,-3.6463,-3.6494,-3.6489,-3.6521,-3.652,-3.6539,-3.6528,-3.6528,-3.6538,-3.6543,-3.6535,-3.6534,-3.6536,-3.654,-3.6553,-3.6553,-3.6553,-3.6554,0,-3.6352,-3.6378,-3.6364,-3.639,-3.6397,-3.6383,-3.6406,-3.6399,-3.6417,-3.6411,-3.6412,-3.6439,-3.6441,-3.6466,-3.6471,-3.6485,-3.6467,-3.6477,-3.6463,-3.6467,-3.6447,-3.6449,-3.6371,-3.6364,-3.6441,-3.644,-3.6439,0,-3.6306,-3.6294,-3.6321,-3.6321,-3.633,-3.6329,-3.6332,-3.6363,-3.6365,-3.6382,-3.6374,-3.6378,-3.6383,-3.6384,-3.6405,-3.6411,-3.6423,-3.6396,-3.6424,-3.6418,-3.6425,-3.6426,-3.6426,-3.6389,-3.6388,-3.6388,-3.6387,0,-3.6224,-3.6239,-3.6242,-3.6251,-3.6255,-3.6263,-3.6273,-3.6271,-3.6307,-3.6307,-3.6311,-3.6315,-3.6324,-3.6329,-3.634,-3.6351,-3.6376,-3.6379,-3.6375,-3.6367,-3.636,-3.6366,-3.6448,-3.638,-3.638,-3.6381,-3.6381,-3.6382,-3.6161,-3.6154,-3.6173,-3.6177,-3.6189,-3.62,-3.6197,-3.6217,-3.622,-3.6231,-3.625,-3.6251,-3.6269,-3.6287,-3.6297,-3.63,-3.6314,-3.6307,-3.6306,-3.6304,-3.6301,-3.636,-3.6302,-3.6302,-3.6302,-3.6302,-3.6302,0,-3.6082,-3.6097,-3.6101,-3.6117,-3.6121,-3.6147,-3.6161,-3.6163,-3.6164,-3.618,-3.6186,-3.6192,-3.6199,-3.6224,-3.6234,-3.6232,-3.6243,-3.6233,-3.6234,-3.6237,-3.6286,-3.629,-3.6224,-3.6224,-3.6224,-3.6224,-3.6224,-3.6224,-3.6041,-3.6032,-3.605,-3.605,-3.6066,-3.6069,-3.6076,-3.6087,-3.61,-3.6106,-3.6113,-3.613,-3.615,-3.6163,-3.6172,-3.6179,-3.6182,-3.6168,-3.6179,-3.6225,-3.6232,-3.624,-3.6243,-3.6168,-3.6168,-3.6129,-3.6129,-3.6129]}]]